TimePDT,TemperatureF,Dew PointF,Humidity,Sea Level PressureIn,VisibilityMPH,Wind Direction,Wind SpeedMPH,Gust SpeedMPH,PrecipitationIn,Events,Conditions,WindDirDegrees,DateUTC
12:42 AM,59.0,59.0,100,29.97,7.0,WNW,6.9,-,N/A,,Mostly Cloudy,290,2012-10-10 07:42:00
12:54 AM,60.1,60.1,100,29.98,7.0,WNW,4.6,-,N/A,,Mostly Cloudy,290,2012-10-10 07:54:00
1:06 AM,59.0,59.0,100,29.98,7.0,WNW,3.5,-,N/A,,Scattered Clouds,290,2012-10-10 08:06:00
1:34 AM,59.0,59.0,100,29.98,6.0,Calm,Calm,-,N/A,,Mostly Cloudy,0,2012-10-10 08:34:00
1:54 AM,59.0,59.0,100,29.99,7.0,Calm,Calm,-,N/A,,Scattered Clouds,0,2012-10-10 08:54:00
2:54 AM,57.0,57.0,100,29.98,6.0,East,3.5,-,N/A,,Clear,80,2012-10-10 09:54:00
3:54 AM,54.0,54.0,100,29.97,5.0,Calm,Calm,-,N/A,,Clear,0,2012-10-10 10:54:00
4:54 AM,55.9,55.9,100,29.97,5.0,Calm,Calm,-,N/A,,Mostly Cloudy,0,2012-10-10 11:54:00
5:54 AM,57.0,57.0,100,29.97,5.0,NE,3.5,-,N/A,,Partly Cloudy,40,2012-10-10 12:54:00
6:54 AM,55.9,55.9,100,29.97,7.0,NNE,4.6,-,N/A,,Scattered Clouds,20,2012-10-10 13:54:00
7:54 AM,57.0,57.0,100,29.99,7.0,NNE,3.5,-,N/A,,Scattered Clouds,20,2012-10-10 14:54:00
8:54 AM,62.1,59.0,90,29.99,7.0,NNE,3.5,-,N/A,,Scattered Clouds,20,2012-10-10 15:54:00
9:54 AM,66.9,60.1,79,29.99,7.0,South,5.8,-,N/A,,Scattered Clouds,170,2012-10-10 16:54:00
10:41 AM,68.0,60.8,78,29.99,7.0,South,9.2,-,N/A,Tornado,Funnel Cloud,180,2012-10-10 17:41:00
10:54 AM,68.0,60.1,76,30.00,7.0,South,10.4,-,N/A,,Mostly Cloudy,170,2012-10-10 17:54:00
11:09 AM,68.0,60.8,78,29.99,7.0,South,11.5,-,0.00,Rain,Rain,180,2012-10-10 18:09:00
11:15 AM,64.4,62.6,94,29.99,8.0,SW,10.4,-,0.00,Rain-Tornado,Funnel Cloud,220,2012-10-10 18:15:00
11:19 AM,64.4,62.6,94,29.99,7.0,SSW,9.2,-,0.00,Rain,Rain,210,2012-10-10 18:19:00
11:40 AM,62.6,60.8,94,29.99,7.0,SSW,3.5,-,N/A,Rain-Tornado,Funnel Cloud,210,2012-10-10 18:40:00
11:51 AM,64.4,62.6,94,29.99,7.0,South,5.8,-,0.13,Rain,Rain,190,2012-10-10 18:51:00
11:54 AM,64.4,62.6,94,29.99,7.0,SSW,3.5,-,N/A,Rain,Rain,200,2012-10-10 18:54:00
12:37 PM,64.4,62.6,94,29.98,7.0,SW,9.2,-,N/A,,Mostly Cloudy,230,2012-10-10 19:37:00
12:54 PM,66.9,63.0,87,29.98,7.0,WSW,9.2,-,N/A,,Mostly Cloudy,240,2012-10-10 19:54:00
1:54 PM,66.9,61.0,81,29.95,7.0,SW,9.2,-,N/A,,Scattered Clouds,220,2012-10-10 20:54:00
2:54 PM,66.9,60.1,79,29.93,7.0,SW,9.2,-,N/A,,Scattered Clouds,230,2012-10-10 21:54:00
3:54 PM,66.9,60.1,79,29.93,7.0,SW,8.1,-,N/A,,Scattered Clouds,220,2012-10-10 22:54:00
4:54 PM,66.0,57.9,75,29.92,7.0,SW,9.2,-,N/A,,Scattered Clouds,230,2012-10-10 23:54:00
5:54 PM,64.0,60.1,87,29.92,7.0,WSW,9.2,-,N/A,,Scattered Clouds,240,2012-10-11 00:54:00
6:54 PM,61.0,59.0,93,29.92,7.0,WSW,3.5,-,N/A,,Scattered Clouds,250,2012-10-11 01:54:00
7:34 PM,60.8,60.8,100,29.92,7.0,WNW,3.5,-,N/A,,Mostly Cloudy,300,2012-10-11 02:34:00
7:41 PM,60.8,60.8,100,29.93,7.0,WNW,3.5,-,N/A,,Mostly Cloudy,300,2012-10-11 02:41:00
7:54 PM,61.0,60.1,97,29.94,7.0,WNW,3.5,-,N/A,,Mostly Cloudy,290,2012-10-11 02:54:00
8:15 PM,60.8,60.8,100,29.93,7.0,WNW,4.6,-,N/A,,Mostly Cloudy,290,2012-10-11 03:15:00
8:54 PM,60.1,59.0,96,29.93,6.0,WNW,4.6,-,N/A,,Mostly Cloudy,290,2012-10-11 03:54:00
9:54 PM,57.0,57.0,100,29.94,6.0,West,3.5,-,N/A,,Mostly Cloudy,280,2012-10-11 04:54:00
10:01 PM,57.2,57.2,100,29.93,6.0,West,3.5,-,N/A,,Clear,280,2012-10-11 05:01:00
10:39 PM,60.8,59.0,94,29.93,7.0,WNW,4.6,-,N/A,,Mostly Cloudy,300,2012-10-11 05:39:00
10:54 PM,59.0,59.0,100,29.94,6.0,WNW,4.6,-,N/A,,Mostly Cloudy,290,2012-10-11 05:54:00
11:01 PM,59.0,59.0,100,29.94,6.0,WNW,3.5,-,N/A,,Partly Cloudy,290,2012-10-11 06:01:00
11:54 PM,57.0,57.0,100,29.93,6.0,Calm,Calm,-,N/A,,Partly Cloudy,0,2012-10-11 06:54:00